GW6916 Weather Reports


time (UTC)temp
C
wind
direction
speed
KPH
gust
KPH
rain 1hr
cm
rain 24hr
cm
rain mn
cm
humidity
%
barometer
mb
20260504190218 25 167 4.8 4.8 0.00 0.00 0.00 38 1015.0
20260504185714 23 158 8.0 9.7 0.00 0.00 0.00 38 1015.3
20260504185211 23 112 8.0 11.3 0.00 0.00 0.00 38 1015.0
20260504184707 24 163 11.3 12.9 0.00 0.00 0.00 38 1014.9
20260504184203 25 158 11.3 14.5 0.00 0.00 0.00 37 1015.3
20260504183659 24 169 12.9 14.5 0.00 0.00 0.00 37 1015.3
20260504183156 24 178 11.3 16.1 0.00 0.00 0.00 37 1015.4
20260504182654 24 147 4.8 4.8 0.00 0.00 0.00 38 1015.6
20260504182151 23 139 11.3 14.5 0.00 0.00 0.00 39 1015.7
20260504181649 23 129 9.7 16.1 0.00 0.00 0.00 39 1015.8
20260504181146 23 131 16.1 20.9 0.00 0.00 0.00 38 1015.6
20260504180645 25 122 4.8 9.7 0.00 0.00 0.00 38 1015.8
20260504180143 23 167 3.2 3.2 0.00 0.00 0.00 38 1015.8
20260504175640 23 160 6.4 8.0 0.00 0.00 0.00 38 1015.9
20260504175137 23 126 8.0 9.7 0.00 0.00 0.00 38 1016.0
20260504174635 23 105 8.0 12.9 0.00 0.00 0.00 39 1016.0
20260504174131 23 152 14.5 16.1 0.00 0.00 0.00 38 1016.0
20260504173629 24 175 12.9 14.5 0.00 0.00 0.00 37 1015.9
20260504173126 24 159 6.4 8.0 0.00 0.00 0.00 38 1016.1
20260504172622 23 170 6.4 11.3 0.00 0.00 0.00 40 1016.1
20260504172119 22 161 8.0 9.7 0.00 0.00 0.00 41 1016.1
20260504171615 22 23 1.6 3.2 0.00 0.00 0.00 41 1016.1
20260504171113 22 161 8.0 11.3 0.00 0.00 0.00 41 1016.2
20260504170609 22 173 9.7 11.3 0.00 0.00 0.00 40 1016.3
20260504170107 22 145 8.0 9.7 0.00 0.00 0.00 40 1016.1
20260504150952 20 15 6.4 9.7 0.00 0.00 0.00 43 1017.3
20260504150449 20 234 8.0 11.3 0.00 0.00 0.00 42 1017.1
20260504140915 17 275 4.8 4.8 0.00 0.00 0.00 47 1017.5
20260504140411 18 309 9.7 11.3 0.00 0.00 0.00 49 1017.5
20260504130337 16 269 4.8 4.8 0.00 0.00 0.00 56 1017.5
20260504120300 11 206 1.6 1.6 0.00 0.00 0.00 69 1017.9
20260504110224 7 189 0.0 0.0 0.00 0.00 0.00 81 1017.5
20260504100148 8 185 1.6 1.6 0.00 0.00 0.00 74 1017.2
20260504090110 7 204 0.0 0.0 0.00 0.00 0.00 78 1017.1
20260504081541 8 200 0.0 0.0 0.00 0.00 0.00 79 1017.0
20260504081036 8 200 0.0 1.6 0.00 0.00 0.00 77 1017.3
20260504080533 8 200 1.6 1.6 0.00 0.00 0.00 78 1017.1
20260504050346 11 201 0.0 0.0 0.00 0.00 0.00 63 1017.7
20260504045843 11 229 1.6 1.6 0.00 0.00 0.00 63 1017.9
20260504045338 11 249 1.6 1.6 0.00 0.00 0.00 64 1017.8
20260504044835 11 232 1.6 1.6 0.00 0.00 0.00 66 1017.5
20260504044332 11 258 1.6 1.6 0.00 0.00 0.00 67 1017.7
20260504043830 11 176 1.6 1.6 0.00 0.00 0.00 64 1017.5
20260504043326 11 177 1.6 1.6 0.00 0.00 0.00 65 1017.5
20260504042824 11 196 4.8 4.8 0.00 0.00 0.00 65 1017.4
20260504042320 11 185 1.6 3.2 0.00 0.00 0.00 63 1017.4
20260504041816 11 190 3.2 3.2 0.00 0.00 0.00 64 1017.7
20260504041312 11 175 3.2 3.2 0.00 0.00 0.00 64 1017.7
20260504040809 11 144 0.0 0.0 0.00 0.00 0.00 65 1017.8
20260504040306 11 143 0.0 1.6 0.00 0.00 0.00 63 1017.6
20260504035802 12 135 0.0 0.0 0.00 0.00 0.00 63 1017.6
20260504035300 12 135 1.6 1.6 0.00 0.00 0.00 63 1017.6
20260504034757 12 150 3.2 3.2 0.00 0.00 0.00 62 1017.6
20260504034254 12 162 0.0 0.0 0.00 0.00 0.00 64 1017.5
20260504033751 12 165 1.6 1.6 0.00 0.00 0.00 63 1017.8
20260504033249 12 176 3.2 3.2 0.00 0.00 0.00 58 1017.6
20260504032745 12 192 0.0 0.0 0.00 0.00 0.00 60 1017.7
20260504032243 12 192 0.0 0.0 0.00 0.00 0.00 58 1017.4
20260504031739 13 193 0.0 0.0 0.00 0.00 0.00 56 1017.5
20260504031237 13 188 0.0 0.0 0.00 0.00 0.00 55 1017.7
20260504030732 13 172 1.6 1.6 0.00 0.00 0.00 55 1017.6
20260504030230 13 194 3.2 3.2 0.00 0.00 0.00 55 1017.5
20260504025726 13 190 0.0 0.0 0.00 0.00 0.00 54 1017.6
20260504025223 13 196 1.6 3.2 0.00 0.00 0.00 54 1017.5
20260504024720 13 201 3.2 3.2 0.00 0.00 0.00 54 1017.5
20260504024217 13 187 0.0 1.6 0.00 0.00 0.00 54 1017.4
20260504023714 13 182 0.0 0.0 0.00 0.00 0.00 54 1017.4
20260504023209 13 185 1.6 1.6 0.00 0.00 0.00 54 1017.2
20260504022706 13 192 1.6 3.2 0.00 0.00 0.00 53 1017.3
20260504022202 13 189 3.2 3.2 0.00 0.00 0.00 51 1017.0
20260504021700 14 176 1.6 1.6 0.00 0.00 0.00 52 1016.9
20260504021156 14 203 3.2 3.2 0.00 0.00 0.00 50 1017.0
20260504020653 14 188 0.0 0.0 0.00 0.00 0.00 50 1016.9
20260504020149 15 193 0.0 0.0 0.00 0.00 0.00 50 1016.7
20260504015646 15 171 0.0 0.0 0.00 0.00 0.00 49 1016.9
20260504015142 15 166 1.6 1.6 0.00 0.00 0.00 48 1016.9
20260504014638 15 249 4.8 4.8 0.00 0.00 0.00 48 1016.8
20260504014136 15 121 4.8 4.8 0.00 0.00 0.00 47 1016.5
20260504013633 15 173 3.2 4.8 0.00 0.00 0.00 47 1016.7
20260504013130 15 183 3.2 4.8 0.00 0.00 0.00 46 1016.4
20260504012627 16 169 3.2 3.2 0.00 0.00 0.00 46 1016.3
20260504012125 16 191 3.2 3.2 0.00 0.00 0.00 45 1016.2
20260504011622 16 176 3.2 3.2 0.00 0.00 0.00 44 1016.2
20260504011118 16 158 6.4 9.7 0.00 0.00 0.00 44 1016.4
20260504010614 16 166 1.6 1.6 0.00 0.00 0.00 44 1016.4
20260504010110 16 155 3.2 3.2 0.00 0.00 0.00 44 1016.2
20260504005607 16 179 6.4 9.7 0.00 0.00 0.00 43 1016.2
20260504005104 16 196 4.8 4.8 0.00 0.00 0.00 43 1016.2
20260504004602 17 184 6.4 8.0 0.00 0.00 0.00 43 1015.9
20260504004059 17 165 3.2 3.2 0.00 0.00 0.00 42 1016.0
20260504003555 17 172 4.8 4.8 0.00 0.00 0.00 42 1015.9
20260504003052 17 155 4.8 4.8 0.00 0.00 0.00 42 1016.1
20260504002549 17 163 4.8 4.8 0.00 0.00 0.00 42 1015.8
20260504002046 17 161 0.0 1.6 0.00 0.00 0.00 42 1015.9
20260504001544 17 186 6.4 8.0 0.00 0.00 0.00 41 1016.0
20260504001039 18 169 3.2 3.2 0.00 0.00 0.00 41 1015.7
20260504000537 18 181 9.7 11.3 0.00 0.00 0.00 40 1015.6
20260504000034 18 152 4.8 4.8 0.00 0.00 0.00 40 1015.6
20260503235533 18 223 8.0 11.3 0.00 0.00 0.00 39 1015.8
20260503235029 19 218 4.8 4.8 0.00 0.00 0.00 39 1015.6
20260503234527 19 138 8.0 9.7 0.00 0.00 0.00 38 1015.9
20260503234025 19 195 11.3 12.9 0.00 0.00 0.00 38 1015.6
20260503233521 20 191 3.2 3.2 0.00 0.00 0.00 38 1015.6
20260503233017 20 187 4.8 4.8 0.00 0.00 0.00 38 1015.7
20260503232514 20 183 6.4 8.0 0.00 0.00 0.00 37 1015.7
20260503232012 20 169 9.7 12.9 0.00 0.00 0.00 36 1015.7
20260503231510 20 171 6.4 8.0 0.00 0.00 0.00 36 1015.7
20260503231006 20 162 3.2 3.2 0.00 0.00 0.00 35 1015.7
20260503230503 20 179 11.3 14.5 0.00 0.00 0.00 36 1015.7
20260503230000 20 175 14.5 16.1 0.00 0.00 0.00 35 1015.8
20260503225456 20 175 8.0 9.7 0.00 0.00 0.00 35 1015.7
20260503224952 21 155 4.8 8.0 0.00 0.00 0.00 36 1015.7
20260503224449 21 161 6.4 8.0 0.00 0.00 0.00 35 1015.8
20260503223947 20 77 1.6 1.6 0.00 0.00 0.00 35 1015.9
20260503223445 21 168 11.3 14.5 0.00 0.00 0.00 36 1015.9
20260503222940 21 211 12.9 16.1 0.00 0.00 0.00 35 1015.8
20260503222439 21 178 3.2 4.8 0.00 0.00 0.00 35 1015.8
20260503221937 21 159 4.8 8.0 0.00 0.00 0.00 36 1015.6
20260503221435 21 165 12.9 16.1 0.00 0.00 0.00 34 1015.9
20260503220931 21 136 9.7 9.7 0.00 0.00 0.00 34 1015.8
20260503220428 21 175 11.3 12.9 0.00 0.00 0.00 34 1015.9
20260503215925 21 245 1.6 3.2 0.00 0.00 0.00 33 1016.0
20260503215421 21 254 6.4 12.9 0.00 0.00 0.00 33 1016.0
20260503214919 21 94 3.2 3.2 0.00 0.00 0.00 32 1016.0
20260503214416 21 166 8.0 9.7 0.00 0.00 0.00 32 1015.9
20260503213914 21 212 6.4 8.0 0.00 0.00 0.00 32 1016.0
20260503213412 22 278 12.9 16.1 0.00 0.00 0.00 31 1015.9
20260503212908 22 208 4.8 8.0 0.00 0.00 0.00 31 1016.2
20260503212406 22 253 4.8 4.8 0.00 0.00 0.00 30 1016.2
20260503211903 21 186 9.7 11.3 0.00 0.00 0.00 30 1016.3
20260503211359 21 193 4.8 8.0 0.00 0.00 0.00 32 1015.9
20260503210854 21 170 1.6 3.2 0.00 0.00 0.00 31 1015.9
20260503210352 21 294 6.4 8.0 0.00 0.00 0.00 30 1016.4
20260503205847 22 228 6.4 8.0 0.00 0.00 0.00 30 1016.3
20260503205344 21 169 3.2 4.8 0.00 0.00 0.00 29 1016.3
20260503204840 21 213 1.6 3.2 0.00 0.00 0.00 28 1016.3
20260503204338 21 234 8.0 9.7 0.00 0.00 0.00 29 1016.7
20260503203835 22 275 9.7 14.5 0.00 0.00 0.00 29 1016.5
20260503203332 21 202 1.6 3.2 0.00 0.00 0.00 29 1016.4
20260503202829 21 270 4.8 4.8 0.00 0.00 0.00 29 1016.6
20260503202327 21 169 9.7 11.3 0.00 0.00 0.00 28 1016.7
20260503201825 21 314 8.0 11.3 0.00 0.00 0.00 30 1016.6
20260503201322 21 262 4.8 4.8 0.00 0.00 0.00 30 1017.0
20260503200820 21 331 3.2 4.8 0.00 0.00 0.00 28 1016.9
20260503200315 21 175 11.3 17.7 0.00 0.00 0.00 29 1017.1
20260503195813 21 127 11.3 12.9 0.00 0.00 0.00 27 1017.2
20260503195309 21 159 14.5 17.7 0.00 0.00 0.00 27 1017.3
20260503194807 21 132 6.4 8.0 0.00 0.00 0.00 28 1017.4
20260503194302 21 335 1.6 3.2 0.00 0.00 0.00 29 1017.6
20260503193758 20 331 4.8 8.0 0.00 0.00 0.00 28 1017.6
20260503193254 20 260 4.8 4.8 0.00 0.00 0.00 29 1017.7
20260503192750 21 257 11.3 12.9 0.00 0.00 0.00 30 1017.8
20260503192245 21 233 4.8 8.0 0.00 0.00 0.00 29 1017.9
20260503191743 21 287 11.3 14.5 0.00 0.00 0.00 29 1018.0
20260503191240 20 279 8.0 9.7 0.00 0.00 0.00 29 1017.8
20260503190737 21 305 14.5 14.5 0.00 0.00 0.00 28 1018.1